Ames, IA

4:16 PM CDT on September 24, 2016 (GMT -0500)
Ames Municipal

Weather History for KAMW - January, 2013

Change the Weather History Date:

Wednesday, January 30, 2013

  Actual Average Record
Temperature  
Mean Temperature 23 °F 21 °F  
Max Temperature 32 °F 30 °F 61 °F (2012)
Min Temperature 13 °F 12 °F -9 °F (2004)
Degree Days  
Heating Degree Days 42 44  
Month to date heating degree days 1273 1357  
Since 1 July heating degree days 3842 4111  
Cooling Degree Days 0 0  
Month to date cooling degree days 0 0  
Year to date cooling degree days 0 0  
Moisture  
Dew Point 17 °F    
Average Humidity 84    
Maximum Humidity 96    
Minimum Humidity 71    
Precipitation  
Precipitation 0.07 in 0.05 in 0.18 in (1983)
Month to date precipitation 0.89 0.70  
Sea Level Pressure  
Sea Level Pressure 29.67 in    
Wind  
Wind Speed 21 mph (NW)    
Max Wind Speed 35 mph    
Max Gust Speed 44 mph    
Visibility 3 miles    
Events Fog , Snow    
T = Trace of Precipitation, MM = Missing Value Source: NWS Daily Summary

Daily Weather History Graph

Daily Weather History Graph

Search for Another Location

Airport or City:

Trip Planner

Search our weather history database for the weather conditions in past years. The results will help you decide how hot, cold, wet, or windy it might be!

Date:

Astronomy

Jan. 30, 2013 Rise Set
Actual Time 7:28 AM CST 5:27 PM CST
Civil Twilight 6:59 AM CST 5:56 PM CST
Nautical Twilight 6:25 AM CST 6:30 PM CST
Astronomical Twilight 5:52 AM CST 7:03 PM CST
Moon 9:31 PM CST (1/30) 8:52 AM CST (1/30)
Length of Visible Light 10h 57m
Length of Day
9h 58m
Waning Gibbous, 87% of the Moon is Illuminated
Jan 30
Waning Gibbous
Feb 3
Last Quarter
Feb 10
New
Feb 17
First Quarter
Feb 25
Full

Hourly Weather History & Observations

Time (CST) Temp. Windchill Dew Point Humidity Pressure Visibility Wind Dir Wind Speed Gust Speed Precip Events Conditions
12:53 AM 30.9 °F 19.1 °F 28.0 °F 89% 29.58 in 2.5 mi North 18.4 mph 25.3 mph 0.00 in Snow Light Snow
1:15 AM 30.2 °F 17.8 °F 28.4 °F 93% 29.55 in 1.8 mi North 19.6 mph 26.5 mph 0.00 in Snow Light Snow
1:27 AM 30.2 °F 16.5 °F 28.4 °F 93% 29.55 in 1.2 mi North 24.2 mph 33.4 mph 0.00 in Snow Light Snow
1:53 AM 30.0 °F 16.9 °F 28.0 °F 92% 29.55 in 2.0 mi North 21.9 mph 31.1 mph 0.00 in Snow Light Snow
2:00 AM 30.2 °F 17.1 °F 26.6 °F 86% 29.53 in 2.5 mi North 21.9 mph 29.9 mph 0.00 in Snow Light Snow
2:07 AM 30.2 °F 18.5 °F 26.6 °F 86% 29.54 in 3.0 mi North 17.3 mph 29.9 mph 0.00 in Snow Light Snow
2:12 AM 30.2 °F 17.4 °F 26.6 °F 86% 29.55 in 4.0 mi North 20.7 mph 26.5 mph 0.00 in Snow Light Snow
2:53 AM 28.9 °F 14.8 °F 27.0 °F 92% 29.58 in 1.5 mi NNW 24.2 mph 27.6 mph 0.01 in Snow Light Snow
3:02 AM 28.4 °F 14.4 °F 26.6 °F 93% 29.55 in 2.0 mi North 23.0 mph 32.2 mph 0.00 in Snow Light Snow
3:24 AM 28.4 °F 13.8 °F 26.6 °F 93% 29.51 in 1.8 mi North 25.3 mph 35.7 mph 0.01 in Snow Light Snow
3:41 AM 26.6 °F 10.6 °F 24.8 °F 93% 29.50 in 1.5 mi NNW 28.8 mph 40.3 mph 0.01 in Snow Light Snow
3:53 AM 27.0 °F 11.9 °F 24.1 °F 89% 29.53 in 2.0 mi North 25.3 mph 39.1 mph 0.01 in Snow Light Snow
4:13 AM 26.6 °F 11.1 °F 24.8 °F 93% 29.50 in 3.0 mi NNW 26.5 mph 41.4 mph 0.00 in Snow Light Snow
4:37 AM 26.6 °F 12.4 °F 24.8 °F 93% 29.55 in 2.0 mi NNW 21.9 mph 33.4 mph 0.00 in Snow Light Snow
4:42 AM 26.6 °F 11.7 °F 24.8 °F 93% 29.55 in 1.5 mi NNW 24.2 mph 33.4 mph 0.00 in Snow Light Snow
4:53 AM 26.1 °F 11.3 °F 23.0 °F 88% 29.57 in 1.0 mi NNW 23.0 mph 34.5 mph 0.00 in Snow Light Snow
5:07 AM 26.6 °F 13.1 °F 23.0 °F 86% 29.55 in 0.8 mi NNW 19.6 mph 27.6 mph 0.00 in Snow Light Snow
5:16 AM 26.6 °F 12.4 °F 23.0 °F 86% 29.55 in 0.5 mi NNW 21.9 mph 31.1 mph 0.00 in Fog , Snow Snow
5:44 AM 24.8 °F 10.3 °F 24.8 °F 100% 29.55 in 0.2 mi NNW 20.7 mph 33.4 mph 0.01 in Fog , Snow Heavy Snow
5:51 AM 24.8 °F 9.3 °F 23.0 °F 93% 29.55 in 0.5 mi NNW 24.2 mph 32.2 mph 0.01 in Fog , Snow Snow
5:53 AM 25.0 °F 9.5 °F 23.0 °F 92% 29.57 in 0.5 mi NNW 24.2 mph 32.2 mph 0.01 in Fog , Snow Snow
6:53 AM 24.1 °F 9.8 °F 21.9 °F 91% 29.60 in 0.5 mi NNW 19.6 mph 29.9 mph 0.01 in Fog , Snow Snow
7:53 AM 23.0 °F 6.0 °F 21.0 °F 92% 29.61 in 0.5 mi NNW 27.6 mph 36.8 mph 0.01 in Fog , Snow Snow
8:11 AM 21.2 °F 3.3 °F 19.4 °F 93% 29.59 in 0.2 mi NNW 28.8 mph 34.5 mph 0.00 in Fog , Snow Snow
8:26 AM 21.2 °F 3.5 °F 19.4 °F 93% 29.59 in 0.2 mi NNW 27.6 mph 41.4 mph 0.02 in Fog , Snow Snow
8:37 AM 21.2 °F 4.2 °F 19.4 °F 93% 29.60 in 0.5 mi NNW 25.3 mph 35.7 mph 0.02 in Fog , Snow Snow
8:53 AM 21.9 °F 5.1 °F 19.0 °F 89% 29.63 in 0.5 mi NNW 25.3 mph 34.5 mph 0.02 in Fog , Snow Snow
9:53 AM 19.9 °F 2.8 °F 17.1 °F 89% 29.65 in 0.5 mi NW 24.2 mph 39.1 mph 0.00 in Fog , Snow Light Snow
10:14 AM 19.4 °F -0.3 °F 15.8 °F 86% 29.63 in 1.0 mi NW 33.4 mph 42.6 mph 0.00 in Snow Light Snow
10:22 AM 19.4 °F 0.5 °F 15.8 °F 86% 29.64 in 0.8 mi NNW 29.9 mph 42.6 mph 0.00 in Snow Blowing Snow
10:32 AM 19.4 °F 0.5 °F 15.8 °F 86% 29.64 in 1.0 mi NW 29.9 mph 39.1 mph 0.00 in Snow Light Snow
10:44 AM 19.4 °F 1.1 °F 15.8 °F 86% 29.65 in 0.8 mi NW 27.6 mph 43.7 mph 0.00 in   Overcast
10:53 AM 19.9 °F 1.5 °F 15.1 °F 81% 29.68 in 1.2 mi NW 28.8 mph 35.7 mph 0.00 in   Overcast
11:16 AM 19.4 °F 1.8 °F 15.8 °F 86% 29.66 in 1.5 mi NW 25.3 mph 35.7 mph 0.00 in Snow Light Snow
11:53 AM 19.9 °F 2.5 °F 14.0 °F 78% 29.69 in 1.5 mi NW 25.3 mph 38.0 mph 0.00 in   Overcast
12:17 PM 21.2 °F 4.2 °F 14.0 °F 74% 29.66 in 2.5 mi NW 25.3 mph 35.7 mph 0.00 in   Overcast
12:25 PM 19.4 °F 2.1 °F 14.0 °F 80% 29.66 in 1.5 mi NW 24.2 mph 39.1 mph 0.00 in   Overcast
12:32 PM 21.2 °F 5.2 °F 14.0 °F 74% 29.66 in 3.0 mi NW 21.9 mph 34.5 mph 0.00 in   Overcast
12:43 PM 19.4 °F 0.8 °F 14.0 °F 80% 29.66 in 1.8 mi NW 28.8 mph 38.0 mph 0.00 in   Overcast
12:53 PM 21.0 °F 3.3 °F 15.1 °F 78% 29.69 in 1.8 mi NW 27.6 mph 34.5 mph 0.00 in   Overcast
1:13 PM 21.2 °F 3.9 °F 14.0 °F 74% 29.66 in 2.0 mi NW 26.5 mph 39.1 mph 0.00 in   Overcast
1:41 PM 21.2 °F 3.9 °F 15.8 °F 80% 29.66 in 3.0 mi NW 26.5 mph 33.4 mph 0.00 in   Overcast
1:48 PM 21.2 °F 4.2 °F 15.8 °F 80% 29.66 in 2.0 mi NW 25.3 mph 32.2 mph 0.00 in   Overcast
1:53 PM 19.9 °F 1.8 °F 14.0 °F 78% 29.69 in 1.8 mi WNW 27.6 mph 38.0 mph 0.00 in   Overcast
2:01 PM 21.2 °F 3.3 °F 15.8 °F 80% 29.67 in 1.5 mi NW 28.8 mph 38.0 mph 0.00 in   Overcast
2:23 PM 21.2 °F 4.2 °F 14.0 °F 74% 29.67 in 1.8 mi NW 25.3 mph 38.0 mph 0.00 in Snow Light Snow
2:30 PM 21.2 °F 4.2 °F 15.8 °F 80% 29.68 in 2.0 mi NW 25.3 mph 32.2 mph 0.00 in Snow Light Snow
2:38 PM 21.2 °F 3.5 °F 15.8 °F 80% 29.68 in 1.2 mi NW 27.6 mph 32.2 mph 0.00 in Snow Light Snow
2:53 PM 21.0 °F 3.6 °F 14.0 °F 74% 29.71 in 1.2 mi NW 26.5 mph 40.3 mph 0.00 in Snow Light Snow
3:05 PM 21.2 °F 2.7 °F 14.0 °F 74% 29.68 in 2.0 mi NNW 31.1 mph 38.0 mph 0.00 in   Overcast
3:13 PM 19.4 °F 0.5 °F 12.2 °F 74% 29.69 in 1.2 mi NNW 29.9 mph 38.0 mph 0.00 in   Overcast
3:23 PM 21.2 °F 4.9 °F 14.0 °F 74% 29.69 in 3.0 mi NW 23.0 mph 34.5 mph 0.00 in   Overcast
3:35 PM 19.4 °F 2.1 °F 12.2 °F 74% 29.70 in 2.0 mi NW 24.2 mph 36.8 mph 0.00 in   Overcast
3:44 PM 19.4 °F 2.8 °F 12.2 °F 74% 29.70 in 3.0 mi NW 21.9 mph 34.5 mph 0.00 in Snow Light Snow
3:53 PM 19.9 °F 4.3 °F 12.9 °F 74% 29.74 in 7.0 mi NW 19.6 mph 26.5 mph 0.00 in Snow Light Snow
4:03 PM 19.4 °F 3.2 °F 14.0 °F 80% 29.72 in 1.8 mi NW 20.7 mph - 0.00 in Snow Light Snow
4:14 PM 19.4 °F 1.4 °F 15.8 °F 86% 29.72 in 0.8 mi NW 26.5 mph 34.5 mph 0.00 in Snow Light Snow
4:27 PM 19.4 °F 1.8 °F 12.2 °F 74% 29.72 in 1.8 mi NW 25.3 mph 32.2 mph 0.00 in Snow Light Snow
4:43 PM 19.4 °F 1.8 °F 12.2 °F 74% 29.72 in 1.2 mi NW 25.3 mph 31.1 mph 0.00 in Snow Light Snow
4:53 PM 19.0 °F 2.4 °F 12.0 °F 74% 29.76 in 1.8 mi NNW 21.9 mph 33.4 mph 0.00 in Snow Light Snow
4:58 PM 19.4 °F 4.5 °F 12.2 °F 74% 29.73 in 3.0 mi NW 17.3 mph 27.6 mph 0.00 in Snow Light Snow
5:15 PM 19.4 °F 2.1 °F 10.4 °F 68% 29.74 in 1.8 mi NW 24.2 mph 33.4 mph 0.00 in Snow Light Snow
5:25 PM 19.4 °F 3.2 °F 12.2 °F 74% 29.74 in 3.0 mi NNW 20.7 mph 29.9 mph 0.00 in Snow Light Snow
5:38 PM 17.6 °F 0.9 °F 10.4 °F 73% 29.75 in 6.0 mi NW 20.7 mph 29.9 mph 0.00 in Snow Light Snow
5:46 PM 17.6 °F 2.2 °F 10.4 °F 73% 29.75 in 9.0 mi NW 17.3 mph - 0.00 in   Mostly Cloudy
5:53 PM 18.0 °F 3.6 °F 10.9 °F 74% 29.79 in 10.0 mi NW 15.0 mph 23.0 mph 0.00 in   Scattered Clouds
6:53 PM 18.0 °F 4.8 °F 10.0 °F 71% 29.82 in 10.0 mi WNW 12.7 mph - N/A   Overcast
7:12 PM 19.4 °F 7.2 °F 10.4 °F 68% 29.78 in 10.0 mi NW 11.5 mph - N/A   Overcast
7:53 PM 19.0 °F 5.6 °F 12.9 °F 77% 29.83 in 9.0 mi NW 13.8 mph - 0.00 in   Overcast
8:15 PM 19.4 °F 4.1 °F 12.2 °F 74% 29.79 in 10.0 mi WNW 18.4 mph - N/A   Overcast
8:53 PM 19.0 °F 4.0 °F 12.0 °F 74% 29.84 in 4.0 mi NW 17.3 mph 26.5 mph 0.00 in Snow Light Snow
9:27 PM 17.6 °F 1.7 °F 10.4 °F 73% 29.81 in 10.0 mi WNW 18.4 mph 32.2 mph 0.00 in   Overcast
9:44 PM 17.6 °F 2.2 °F 10.4 °F 73% 29.81 in 8.0 mi WNW 17.3 mph 23.0 mph 0.00 in Snow Light Snow
9:53 PM 18.0 °F 3.1 °F 12.0 °F 78% 29.86 in 6.0 mi WNW 16.1 mph 21.9 mph 0.00 in Snow Light Snow
10:53 PM 15.1 °F -0.1 °F 9.0 °F 77% 29.87 in 6.0 mi WNW 15.0 mph - 0.00 in Snow Light Snow
11:18 PM 14.0 °F -2.0 °F 6.8 °F 73% 29.84 in 10.0 mi WNW 16.1 mph - 0.00 in   Partly Cloudy
11:43 PM 12.2 °F -1.8 °F 6.8 °F 79% 29.84 in 10.0 mi NW 11.5 mph - 0.00 in   Mostly Cloudy
11:53 PM 12.9 °F -0.9 °F 7.0 °F 77% 29.89 in 10.0 mi WNW 11.5 mph - 0.00 in   Mostly Cloudy